Regional Weather Roundup
Issued by NWS

Home | Current Version | Previous Version | Text Only | Print | Product List | Glossary Off
Versions: 1 2 3 4 5 6 7 8 9 10 11 12 13 14 15 16 17 18 19 20 21 22 23 24 25 26 27 28 29 30 31 32 33 34 35 36 37 38 39 40 41 42 43 44 45 46 47 48 49 50

000
ASUS43 KDTX 310301
RWRMI
MICHIGAN HOURLY REGIONAL WEATHER ROUNDUP
NATIONAL WEATHER SERVICE DETROIT/PONTIAC MI
1100 PM EDT THU JUL 30 2015

NOTE: "FAIR" INDICATES FEW OR NO CLOUDS BELOW 12,000 FEET WITH NO
SIGNIFICANT WEATHER AND/OR OBSTRUCTION TO VISIBILITY.

MIZ047>049-052>055-059>063-066>070-074>076-081>083-310400-
SOUTHEAST LOWER MICHIGAN

CITY           SKY/WX    TMP DP  RH WIND       PRES   REMARKS
ADRIAN         CLEAR     68  59  73 W3        30.00R
ALMA           CLEAR     66  60  80 SW3       29.94S
ANN ARBOR      CLEAR     67  59  75 SW3       29.98R
BAD AXE        CLEAR     68  58  70 NE3       29.93R
CARO           CLEAR     67  58  75 CALM      29.92S
DETROIT CITY   CLEAR     77  56  48 W6        29.95R
DETROIT        CLEAR     74  58  57 SW7       29.97R
FLINT          CLEAR     72  58  61 W6        29.95R
GROSSE ILE     CLEAR     73  57  56 SW5       29.96R
HILLSDALE      CLEAR     69  58  67 SW3       30.01S
HOWELL         CLEAR     69  56  62 SW3       29.97S

CITY           SKY/WX    TMP DP  RH WIND       PRES   REMARKS
JACKSON        CLEAR     68  59  73 SW6       29.99R
LAMBERTVILLE   CLEAR     71  59  66 SW3       29.99S
LANSING        CLEAR     70  58  65 SW7       29.97R
LAPEER         FAIR      68  59  73 CALM      29.95R
MASON          CLEAR     69  57  65 CALM      29.97S
MONROE         CLEAR     70  59  69 W3        29.97S
MT. CLEMENS    CLEAR     75  58  55 W7        29.93R
PONTIAC        CLEAR     72  58  61 SW6       29.95S
PORT HOPE        N/A     71  61  70 NE5       29.91R
PORT HURON     CLEAR     68  59  73 CALM      29.93S
TRI CITIES     CLEAR     70  59  68 SW7       29.93S
MIDLAND        FAIR      65  57  74 CALM      29.91S
TROY           CLEAR     76  56  50 SW3       29.97S
SAGINAW HB     CLEAR     70  59  68 SW7       29.93R
$$
MIZ043>046-050>051-056>058-064>065-071>073-077>080-310400-
SOUTHWEST LOWER MICHIGAN

CITY           SKY/WX    TMP DP  RH WIND       PRES   REMARKS
BATTLE CREEK   CLEAR     70  59  68 SW6       29.99S
BENTON HARBOR  CLEAR     71  60  68 W5        29.99R
BIG RAPIDS     CLOUDY    69  56  63 W5        29.94S
COLDWATER      CLEAR     67  58  72 SW5       30.00S
FREMONT        FAIR      67  62  84 CALM      29.95R
HOLLAND        CLEAR     70  61  73 W6        29.97S
GRAND RAPIDS   CLEAR     73  60  63 SW8       29.96S
IONIA          FAIR      70  58  67 SW7       29.95S
KALAMAZOO      CLEAR     71  58  63 SW6       29.99R
LUDINGTON      CLEAR     76  64  66 NW7       29.94R
MARSHALL       CLEAR     69  59  68 SW6       29.98S
MOUNT PLEASANT CLEAR     73  56  57 SW3       29.93S
MUSKEGON       PTCLDY    73  59  61 W9        29.96R
SOUTH HAVEN    CLEAR     74  62  65 W3        29.98R
$$
MIZ016>042-310400-
NORTHERN LOWER MICHIGAN

CITY           SKY/WX    TMP DP  RH WIND       PRES   REMARKS
ALPENA         PTCLDY    61  55  81 CALM      29.90R
BEAVER ISLAND  HAZE      66  57  72 S3        29.88F VSB 3/4
BELLAIRE       MOCLDY    62  58  87 CALM      29.90R
CADILLAC       CLOUDY    66  60  81 NW3       29.95R
CHARLEVOIX     CLEAR     63  58  83 CALM      29.92S
FRANKFORT      PTCLDY    64  63  94 CALM      29.92R
GAYLORD        CLEAR     64  56  75 W3        29.92R
GRAYLING       MOCLDY    62  52  70 CALM      29.93S
HARBOR SPRINGS CLEAR     63  57  80 CALM      29.89S
HOUGHTON LAKE  PTCLDY    61  55  81 CALM      29.93R
MANISTEE       PTCLDY    68  57  68 SW3       29.93S
OSCODA         CLEAR     68  62  81 CALM      29.90S
PELLSTON       CLEAR     57  53  86 CALM      29.89R
ROGERS CITY    PTCLDY    60  55  84 SW3       29.89S
TRAVERSE CITY  PTCLDY    75  56  51 SW7       29.89R
$$
MIZ007>008-015-310400-
EASTERN UPPER MICHIGAN

CITY           SKY/WX    TMP DP  RH WIND       PRES   REMARKS
KINROSS        MOCLDY    64  54  68 SW7       29.86R
MACKINAC ISLAN PTCLDY    64  52  66 S7        29.87S
MUNISING         N/A     73  54  51 SW6       29.85S
$$
MIZ004>006-011>014-085-310400-
CENTRAL UPPER MICHIGAN

CITY           SKY/WX    TMP DP  RH WIND       PRES   REMARKS
ESCANABA       CLEAR     66  54  63 W8        29.88S
MENOMINEE      CLEAR     64  57  77 W5        29.91S
SAWYER-GWINN   CLEAR     67  53  60 W9        29.90R
$$
MIZ001>003-009>011-084-310400-
WESTERN UPPER MICHIGAN

CITY           SKY/WX    TMP DP  RH WIND       PRES   REMARKS
IRON MOUNTAIN  CLEAR     65  59  81 CALM      29.91S
HOUGHTON       MOCLDY    65  55  70 N18       29.88R
COPPER HARBOR    N/A     66  58  75 N17G25    29.85R
IRONWOOD       CLEAR     64  55  72 W5        29.90R
$$

ABBREVIATIONS USED IN REMARKS
   TC - TEMPERATURE IN CELSIUS
  WCI - WIND CHILL INDEX
   HX - HEAT INDEX
  VSB - VISIBILITY




USA.gov is the U.S. government's official web portal to all federal, state and local government web resources and services.